Regional Weather Roundup
Issued by NWS State College, PA

Home | Current Version | Previous Version | Text Only | Print | Product List | Glossary On
Versions: 1 2 3 4 5 6 7 8 9 10 11 12 13 14 15 16 17 18 19 20 21 22 23 24 25 26 27 28 29 30 31 32 33 34 35 36 37 38 39 40 41 42 43 44 45 46 47 48 49 50
000
ASUS41 KCTP 011410
RWRCTP

REGIONAL WEATHER ROUNDUP
NATIONAL WEATHER SERVICE STATE COLLEGE PA
1000 AM EDT MON SEP 01 2014

Note: "fair" indicates few or no clouds below 12,000 feet with no
significant weather and/or obstructions to visibility.

* = STATION THAT DOES NOT REPORT PRECIPITATION /E.G. RAIN...SNOW...ETC/
    THUNDER OR FOG.

PAZ002>004-007>009-013>016-020>023-029>032-011500-
WESTERN PENNSYLVANIA

CITY           SKY/WX    TMP DP  RH WIND       PRES   REMARKS
ERIE           CLOUDY    75  69  81 S13G18    29.97F
MEADVILLE      CLOUDY    70  68  93 S6        30.02S FOG
FRANKLIN*      CLOUDY    70  66  88 S8        30.04F
NEW CASTLE     CLOUDY    74  70  87 CALM      30.03S
BEAVER COUNTY  NOT AVBL
BUTLER*        CLOUDY    70  66  88 S5        30.05S
PITTSBURGH INT PTSUNNY   72  70  93 SW6       30.02F
PITTSBURGH     LGT RAIN  72  69  90 SW8       30.03S FOG
INDIANA*       FOG       72  70  94 CALM      30.08F VSB 1
LATROBE        LGT RAIN  72  72 100 S12       30.05S FOG
WASHINGTON CO* CLOUDY    73  70  88 SW5       30.05S
$$

PAZ004>006-010>012-017>019-024>028-033>037-041-042-045-046-049>053-011500-
CENTRAL PENNSYLVANIA

CITY           SKY/WX    TMP DP  RH WIND       PRES   REMARKS
BRADFORD       CLOUDY    70  66  87 VRB3      30.06S
DUBOIS         PTSUNNY   70  67  90 S3        30.05S
CLEARFIELD     CLOUDY    72  68  87 SW3       30.05S
JOHNSTOWN      CLOUDY    69  67  93 S5        30.09R
ALTOONA        LGT RAIN  71  69  93 CALM      30.07S FOG
STATE COLLEGE  PTSUNNY   73  70  88 CALM      30.05S
WILLIAMSPORT   CLOUDY    72  68  87 CALM      30.01S FOG
SELINSGROVE    CLOUDY    76  70  82 CALM      30.03R
FT INDIANTOWN  PTSUNNY   77  75  92 VRB1      30.03S
CAPITAL CITY   CLOUDY    75  71  87 NW3       30.03R
HARRISBURG     CLOUDY    78  71  79 CALM      30.02S
YORK           CLOUDY    76  72  87 CALM      30.03S
$$

PAZ038>040-043-044-047-048-054-055-060>062-067>071-011500-
EASTERN PENNSYLVANIA

CITY           SKY/WX    TMP DP  RH WIND       PRES   REMARKS
SCRANTON       PTSUNNY   76  69  79 W5        30.03S
MOUNT POCONO   CLOUDY    74  67  78 SW3       30.07F
ALLENTOWN      CLOUDY    78  70  76 CALM      30.02F
QUAKERTOWN*    CLOUDY    77  73  88 MISG      30.03F
READING        PTSUNNY   78  72  81 CALM      30.01F
LANCASTER      CLOUDY    77  72  84 SW3       30.03S HAZE
COATESVILLE    PTSUNNY   77  77 100 S3        30.05S
POTTSTOWN      CLOUDY    77  71  82 CALM      30.04S
BLUE BELL      PTSUNNY   79  73  83 CALM      30.03S
DOYLESTOWN     CLOUDY    74  72  93 CALM      30.02S
WILLOW GROVE   NOT AVBL
NORTH PHILA    CLOUDY    78  71  79 CALM      30.04S
PHILADELPHIA   CLOUDY    76  73  91 SW5       30.03R FOG
$$


USA.gov is the U.S. government's official web portal to all federal, state and local government web resources and services.